Torna al catalogo

STARLINK-37099

AttivoComunicazioniSSO
NORAD 68301·PAYLOAD·🇺🇸 United States

Lanciato Mar 20, 2026 da Vandenberg Space Force Base

Loading…

Prossimi Passaggi (prossime 24 ore)

TLE

AggiornatoSource: CelesTrak SupGP

Epoca: Sep 15, 2026, 03:18 UTC

1 68301C 26057H   26258.13798611 -.00040931  00000+0 -12702-2 0  2587
2 68301  97.2855  23.5762 0001125  81.0203 123.5122 15.33469152    10

Traccia STARLINK-37099 in tempo reale con AllMySat

Download on the App Store